星链-5526 (STARLINK-5526 )

导读

STARLINK-5526是美国SpaceX公司星链(Starlink)星座的卫星,于2023年5月10日发射入轨,归属星链互联网卫星星座组网卫星,承担为全球提供高速低延迟互联网覆盖的星座组网任务,是SpaceX大规模推进星链星座部署进程中的一颗组网卫星,服务全球卫星互联网通信布局。

基本信息
目录编号:
56496
目录名称:
STARLINK-5526
国际标识:
2023-064BA
轨道中心:
EARTH
卫星名称:
星链-5526
卫星全名:
星链-5526 (STARLINK-5526 )
卫星状态:
在轨 (已飞行1132 天)
发射日期:
2023-05-10 UTC
国别 :
美国 (US)
星等 :
--
轨道信息
数据来源 国际轨道数据 AOE轨道数据
星历时间 2026-06-14T21:10:49+0800
15小时前
查看轨道信息
2026-06-15T02:00:00+0800
10小时前
查看轨道信息
半长轴 6950.199km 6950.202km
偏心率 0.000404 0.0004231
轨道倾角 69.998° 69.999°
近地点辐角 268.527° 273.944°
升交点赤经 220.132° 219.627°
平近点角 91.543° 89.073°
近地点 569.254km 569.124km
远地点 574.87km 575.006km
周期 96.107分钟 96.107分钟
每日圈数 14.983281 14.983273
详细信息
固有亮度:
5
最大亮度:
2.5
卫星平台:
Starlink v1.5
覆盖范围:
全球
运营商:
太空探索技术公司
运营商所在国:
美国
制造商(研发单位):
太空探索技术公司
制造商所在国:
美国
使用方式:
暂无
卫星简介
星链(Starlink)计划是由太空探索技术公司(SpaceX)提出的一个巨型低轨卫星互联网星座项目,计划在2019年至2024年间在太空搭建由约1.2万颗卫星组成的“星链”网络,其中1584颗将部署在地球上空550千米处的近地轨道,并从2020年开始工作。该卫星仍在工作。
2D轨道图
3D轨道图
轨道高度分析图
轨道倾角分析图
轨道综合分析图
查看轨道综合分析图